KC1HBM Weather Reports


Display with metric or nautical units.
time (UTC)temp
F
wind
direction
speed
MPH
gust
MPH
rain 1hr
in
rain 24hr
in
rain mn
in
humidity
%
barometer
mb
20260906134612 66 319 1.0 1.0 0.00 0.02 0.02 64 1013.0
20260906134107 66 310 0.0 0.0 0.00 0.02 0.02 65 1013.1
20260906133603 65 309 0.0 0.0 0.00 0.02 0.02 68 1013.1
20260906133058 65 314 0.0 0.0 0.00 0.02 0.02 71 1012.9
20260906132553 63 313 0.0 0.0 0.00 0.02 0.02 73 1013.1
20260906132048 63 307 0.0 1.0 0.00 0.02 0.02 73 1013.0
20260906131543 63 312 0.0 0.0 0.00 0.02 0.02 78 1013.1
20260906131039 62 306 0.0 1.0 0.00 0.02 0.02 80 1012.9
20260906130538 62 321 0.0 1.0 0.00 0.02 0.02 81 1013.1
20260906130034 61 309 0.0 1.0 0.00 0.02 0.02 83 1013.1
20260906125530 61 312 0.0 1.0 0.00 0.02 0.02 83 1013.2
20260906125025 61 309 0.0 0.0 0.00 0.02 0.02 84 1013.0
20260906124521 60 321 0.0 0.0 0.00 0.02 0.02 85 1013.1
20260906124016 60 312 1.0 1.0 0.00 0.02 0.02 85 1013.3
20260906123514 60 299 1.0 1.0 0.00 0.02 0.02 85 1013.0
20260906123010 60 310 1.0 1.0 0.00 0.02 0.02 84 1013.0
20260906122504 61 312 0.0 1.0 0.00 0.02 0.02 83 1013.2
20260906122000 61 310 0.0 0.0 0.00 0.02 0.02 84 1013.0
20260906121456 60 310 0.0 0.0 0.00 0.02 0.02 85 1013.1
20260906120952 59 327 0.0 0.0 0.00 0.02 0.02 86 1013.4
20260906120447 59 310 0.0 0.0 0.00 0.02 0.02 86 1013.3
20260906115944 60 308 1.0 2.0 0.00 0.02 0.02 84 1013.3
20260906115439 62 313 1.0 2.0 0.00 0.02 0.02 83 1013.1
20260906114938 62 304 1.0 1.0 0.00 0.02 0.02 82 1013.1
20260906114433 62 310 0.0 0.0 0.00 0.02 0.02 85 1013.1
20260906113929 60 311 0.0 0.0 0.00 0.02 0.02 89 1013.1
20260906113427 59 312 0.0 0.0 0.00 0.02 0.02 92 1012.9
20260906112923 57 311 0.0 0.0 0.00 0.02 0.02 95 1013.0
20260906112419 57 311 0.0 0.0 0.00 0.02 0.02 95 1012.9
20260906111914 58 310 0.0 0.0 0.00 0.02 0.02 95 1012.7
20260906111413 58 308 0.0 1.0 0.00 0.02 0.02 96 1012.8
20260906110908 57 311 0.0 1.0 0.00 0.02 0.02 97 1012.9
20260906110404 57 311 0.0 0.0 0.00 0.02 0.02 98 1012.9
20260906105903 56 311 0.0 0.0 0.00 0.02 0.02 98 1012.8
20260906105359 56 311 0.0 0.0 0.00 0.02 0.02 98 1012.6
20260906104854 56 312 0.0 0.0 0.00 0.02 0.02 98 1012.7
20260906104353 56 312 0.0 0.0 0.00 0.02 0.02 98 1012.7
20260906103852 56 312 0.0 0.0 0.00 0.02 0.02 98 1012.7
20260906103350 56 311 0.0 0.0 0.00 0.02 0.02 97 1012.7
20260906102847 56 316 0.0 0.0 0.00 0.02 0.02 97 1012.7
20260906102345 56 312 0.0 0.0 0.07 0.02 0.02 96 1012.9
20260906101840 56 312 0.0 0.0 0.07 0.02 0.02 96 1012.7
20260906101336 56 311 0.0 0.0 0.00 0.01 0.01 95 1012.6
20260906100831 56 312 0.0 0.0 0.05 0.01 0.01 94 1012.6
20260906100330 57 321 0.0 0.0 0.05 0.01 0.01 93 1012.4
20260906095825 57 314 1.0 1.0 0.00 0.00 0.00 92 1012.6
20260906095321 57 303 0.0 1.0 0.00 0.00 0.00 92 1012.4
20260906094820 57 304 0.0 0.0 0.00 0.00 0.00 92 1012.4
20260906094315 57 313 0.0 0.0 0.00 0.00 0.00 91 1012.3
20260906093812 57 304 0.0 0.0 0.00 0.00 0.00 92 1012.2
20260906093307 57 313 0.0 0.0 0.00 0.00 0.00 92 1012.1
20260906092801 57 317 0.0 0.0 0.00 0.00 0.00 92 1012.1
20260906092256 57 313 0.0 0.0 0.00 0.00 0.00 91 1011.9
20260906091752 57 311 0.0 1.0 0.00 0.00 0.00 91 1011.8
20260906091248 57 314 0.0 0.0 0.00 0.00 0.00 91 1012.1
20260906090744 58 312 0.0 0.0 0.00 0.00 0.00 90 1012.0
20260906090243 58 312 0.0 0.0 0.00 0.00 0.00 90 1012.1
20260906085742 58 313 0.0 0.0 0.00 0.00 0.00 89 1012.1
20260906085242 58 311 0.0 0.0 0.00 0.00 0.00 88 1011.9
20260906084736 58 314 0.0 0.0 0.00 0.00 0.00 88 1012.0
20260906084231 58 310 0.0 0.0 0.00 0.00 0.00 88 1011.8
20260906083726 58 313 0.0 0.0 0.00 0.00 0.00 88 1011.9
20260906083221 58 310 0.0 0.0 0.00 0.00 0.00 89 1011.9
20260906082716 58 312 0.0 0.0 0.00 0.00 0.00 90 1011.8
20260906082211 58 312 0.0 0.0 0.00 0.00 0.00 90 1011.9
20260906081708 58 313 0.0 0.0 0.00 0.00 0.00 90 1011.8
20260906081202 58 314 0.0 0.0 0.00 0.00 0.00 91 1011.5
20260906080658 58 311 0.0 0.0 0.00 0.00 0.00 92 1011.6
20260906080149 58 310 0.0 0.0 0.00 0.00 0.00 92 1011.5
20260906075648 58 310 0.0 0.0 0.00 0.00 0.00 91 1011.7
20260906075143 57 311 0.0 0.0 0.00 0.00 0.00 90 1011.5
20260906074638 57 311 0.0 0.0 0.00 0.00 0.00 90 1012.0
20260906074137 58 313 0.0 0.0 0.00 0.00 0.00 90 1011.9
20260906073632 58 313 0.0 0.0 0.00 0.00 0.00 90 1012.0
20260906073128 58 311 0.0 0.0 0.00 0.00 0.00 90 1011.9
20260906072623 58 312 0.0 0.0 0.00 0.00 0.00 89 1012.0
20260906072119 58 310 0.0 0.0 0.00 0.00 0.00 89 1011.8
20260906071615 58 310 0.0 0.0 0.00 0.00 0.00 89 1011.5
20260906071109 58 312 0.0 0.0 0.00 0.00 0.00 89 1011.7
20260906070606 58 311 0.0 0.0 0.00 0.00 0.00 89 1011.6
20260906070101 58 311 0.0 0.0 0.00 0.00 0.00 89 1011.4
20260906065601 57 311 0.0 0.0 0.00 0.00 0.00 90 1011.3
20260906065056 57 311 0.0 0.0 0.00 0.00 0.00 89 1011.4
20260906064552 58 311 0.0 0.0 0.00 0.00 0.00 89 1011.6
20260906064046 58 311 0.0 0.0 0.00 0.00 0.00 89 1011.5
20260906063542 58 311 0.0 0.0 0.00 0.00 0.00 88 1011.2
20260906063038 58 311 0.0 0.0 0.00 0.00 0.00 88 1011.1
20260906062533 58 312 0.0 0.0 0.00 0.00 0.00 88 1011.4
20260906062027 58 313 0.0 0.0 0.00 0.00 0.00 87 1011.4
20260906061524 58 313 0.0 0.0 0.00 0.00 0.00 87 1011.3
20260906061022 58 311 0.0 0.0 0.00 0.00 0.00 87 1011.3
20260906060519 58 312 0.0 0.0 0.00 0.00 0.00 87 1011.3
20260906060016 58 311 0.0 0.0 0.00 0.00 0.00 88 1011.2
20260906055512 58 314 0.0 0.0 0.00 0.00 0.00 88 1011.3
20260906055007 58 311 0.0 0.0 0.00 0.00 0.00 88 1011.2
20260906054501 58 311 0.0 0.0 0.00 0.00 0.00 88 1011.6
20260906053956 58 312 0.0 0.0 0.00 0.00 0.00 88 1011.3
20260906053453 58 313 0.0 0.0 0.00 0.00 0.00 88 1011.3
20260906052949 58 313 0.0 0.0 0.00 0.00 0.00 87 1011.4
20260906052444 59 312 0.0 0.0 0.00 0.00 0.00 87 1011.4
20260906051941 59 312 0.0 0.0 0.00 0.00 0.00 86 1011.3
20260906051436 59 313 0.0 0.0 0.00 0.00 0.00 86 1011.3
20260906050932 59 311 0.0 0.0 0.00 0.00 0.00 86 1011.2
20260906050431 59 311 0.0 0.0 0.00 0.00 0.00 86 1011.3
20260906045931 59 311 0.0 0.0 0.00 0.00 0.00 86 1011.2
20260906045429 59 310 0.0 0.0 0.00 0.00 0.00 86 1011.3
20260906044926 59 311 0.0 0.0 0.00 0.00 0.00 86 1011.2
20260906044426 59 316 0.0 0.0 0.00 0.00 0.00 86 1011.2
20260906043922 59 311 0.0 0.0 0.00 0.00 0.00 86 1011.3
20260906043417 59 303 0.0 1.0 0.00 0.00 0.00 85 1011.2
20260906042913 60 310 0.0 0.0 0.00 0.00 0.00 85 1011.3
20260906042411 60 309 0.0 0.0 0.00 0.00 0.00 85 1011.3
20260906041907 60 311 0.0 0.0 0.00 0.00 0.00 85 1011.3
20260906041403 60 310 0.0 0.0 0.00 0.00 0.00 84 1011.2
20260906040857 60 311 0.0 0.0 0.00 0.00 0.00 84 1011.3
20260906040352 61 310 0.0 0.0 0.00 0.00 0.00 84 1011.3
20260906035848 61 311 0.0 0.0 0.00 0.01 0.01 84 1011.1
20260906035343 61 310 0.0 1.0 0.00 0.01 0.01 83 1011.2
20260906034838 62 306 0.0 0.0 0.00 0.01 0.01 83 1011.3
20260906034333 62 315 0.0 0.0 0.00 0.01 0.01 83 1011.1
20260906033829 62 312 0.0 0.0 0.00 0.01 0.01 83 1011.1
20260906033328 62 310 0.0 0.0 0.00 0.01 0.01 82 1011.2
20260906032825 62 307 0.0 0.0 0.00 0.01 0.01 82 1011.1
20260906032320 62 308 1.0 1.0 0.00 0.01 0.01 82 1011.1
20260906031815 62 324 0.0 1.0 0.00 0.01 0.01 82 1011.1
20260906031311 62 310 0.0 0.0 0.00 0.01 0.01 82 1011.1
20260906030810 63 311 0.0 1.0 0.00 0.01 0.01 81 1010.8
20260906030306 63 302 0.0 0.0 0.00 0.01 0.01 81 1010.9
20260906025805 62 310 0.0 0.0 0.00 0.01 0.01 82 1010.9
20260906025259 62 297 0.0 1.0 0.00 0.01 0.01 82 1010.8
20260906024758 62 306 0.0 1.0 0.00 0.01 0.01 82 1010.8
20260906024258 63 306 0.0 1.0 0.00 0.01 0.01 81 1011.0
20260906023753 63 303 2.0 2.0 0.00 0.01 0.01 82 1010.8
20260906023249 63 307 0.0 0.0 0.00 0.01 0.01 81 1010.9
20260906022744 63 301 0.0 1.0 0.00 0.01 0.01 81 1010.8
20260906022239 63 310 1.0 1.0 0.00 0.01 0.01 80 1010.9
20260906021736 62 296 0.0 1.0 0.00 0.01 0.01 81 1010.9
20260906021234 62 299 0.0 1.0 0.00 0.01 0.01 82 1010.6
20260906020729 62 311 0.0 0.0 0.00 0.01 0.01 82 1010.7
20260906020223 62 311 1.0 1.0 0.00 0.01 0.01 82 1010.7
20260906015718 62 309 0.0 0.0 0.00 0.01 0.01 83 1010.5
20260906015216 62 310 0.0 0.0 0.00 0.01 0.01 83 1010.7
20260906014711 62 298 0.0 0.0 0.00 0.01 0.01 83 1010.7
20260906014207 62 311 0.0 0.0 0.00 0.01 0.01 83 1010.6
20260906013703 62 310 0.0 0.0 0.00 0.01 0.01 83 1010.8
20260906013158 61 311 0.0 0.0 0.00 0.01 0.01 82 1010.9
20260906012657 62 313 0.0 0.0 0.00 0.01 0.01 82 1010.7
20260906012152 62 313 0.0 0.0 0.00 0.01 0.01 81 1010.8
20260906011648 62 314 0.0 0.0 0.00 0.01 0.01 81 1010.6
20260906011142 63 313 0.0 0.0 0.00 0.01 0.01 81 1010.8
20260906010637 63 312 0.0 0.0 0.00 0.01 0.01 82 1010.7
20260906010134 64 311 0.0 0.0 0.00 0.01 0.01 81 1010.7
20260906005633 64 314 0.0 0.0 0.00 0.01 0.01 80 1010.6
20260906005127 64 313 0.0 0.0 0.00 0.01 0.01 80 1010.7
20260906004626 64 312 0.0 0.0 0.00 0.01 0.01 79 1010.6
20260906004121 64 312 0.0 0.0 0.00 0.01 0.01 78 1010.5
20260906003616 64 311 0.0 1.0 0.00 0.01 0.01 77 1010.4
20260906003113 64 310 0.0 0.0 0.00 0.01 0.01 77 1010.2
20260906002613 64 307 0.0 0.0 0.00 0.01 0.01 78 1010.4
20260906002108 65 307 1.0 1.0 0.00 0.01 0.01 79 1010.5
20260906001603 65 307 1.0 1.0 0.00 0.01 0.01 77 1010.4
20260906001103 64 302 2.0 2.0 0.00 0.01 0.01 77 1010.3
20260906000559 64 309 0.0 0.0 0.00 0.01 0.01 78 1010.5
20260906000054 64 310 0.0 0.0 0.00 0.01 0.01 81 1010.3
20260905235553 63 309 0.0 0.0 0.00 0.01 0.01 83 1010.2
20260905235048 64 307 1.0 1.0 0.00 0.01 0.01 90 1010.2
20260905234543 64 309 0.0 0.0 0.00 0.01 0.01 86 1010.2
20260905234038 63 311 0.0 0.0 0.00 0.01 0.01 86 1010.2
20260905233533 64 309 0.0 0.0 0.00 0.01 0.01 89 1010.0
20260905233033 64 309 0.0 0.0 0.00 0.01 0.01 88 1010.1
20260905232528 64 309 0.0 0.0 0.00 0.01 0.01 81 1010.1
20260905232024 64 312 0.0 0.0 0.00 0.01 0.01 85 1009.8
20260905231519 64 310 0.0 0.0 0.00 0.01 0.01 85 1009.8
20260905231015 64 313 0.0 0.0 0.00 0.01 0.01 83 1009.9
20260905230514 65 314 0.0 0.0 0.00 0.01 0.01 82 1009.8
20260905230013 65 312 0.0 0.0 0.00 0.01 0.01 81 1009.7
20260905225508 66 314 0.0 0.0 0.00 0.01 0.01 79 1009.8
20260905225003 66 314 0.0 0.0 0.00 0.01 0.01 77 1009.7
20260905224458 66 316 0.0 0.0 0.00 0.01 0.01 75 1009.7
20260905223957 67 311 0.0 0.0 0.00 0.01 0.01 75 1009.9
20260905223455 67 311 0.0 0.0 0.00 0.01 0.01 74 1009.4
20260905222950 67 307 0.0 0.0 0.00 0.01 0.01 72 1009.5
20260905222450 68 310 0.0 0.0 0.00 0.01 0.01 70 1009.5
20260905221945 68 307 0.0 0.0 0.00 0.01 0.01 70 1009.4
20260905221442 68 308 0.0 0.0 0.00 0.01 0.01 69 1009.5
20260905220938 68 311 0.0 1.0 0.00 0.01 0.01 70 1009.1
20260905220433 68 307 1.0 1.0 0.00 0.01 0.01 73 1009.4
20260905215932 68 308 0.0 0.0 0.00 0.01 0.01 74 1009.1
20260905215428 68 308 0.0 0.0 0.00 0.01 0.01 73 1009.2
20260905214924 69 307 0.0 0.0 0.00 0.01 0.01 74 1009.1
20260905214420 69 304 0.0 0.0 0.00 0.01 0.01 74 1009.2
20260905213914 69 307 0.0 0.0 0.00 0.01 0.01 74 1009.2
20260905213410 69 307 1.0 1.0 0.00 0.01 0.01 73 1009.0
20260905212905 70 307 0.0 0.0 0.00 0.01 0.01 71 1009.0
20260905212400 70 318 1.0 2.0 0.00 0.01 0.01 70 1008.9
20260905211854 70 307 1.0 2.0 0.00 0.01 0.01 70 1008.8
20260905211349 69 304 1.0 1.0 0.00 0.01 0.01 71 1008.9
20260905210846 69 307 0.0 0.0 0.00 0.01 0.01 73 1008.9
20260905210345 69 305 2.0 2.0 0.00 0.01 0.01 70 1008.6
20260905205844 69 303 1.0 2.0 0.00 0.01 0.01 70 1008.7
20260905205339 70 305 0.0 1.0 0.00 0.01 0.01 71 1008.7
20260905204838 70 303 0.0 0.0 0.00 0.01 0.01 72 1008.7
20260905204335 70 307 0.0 0.0 0.00 0.01 0.01 70 1008.7
20260905203833 71 305 1.0 1.0 0.00 0.01 0.01 69 1008.6
20260905203330 71 302 1.0 2.0 0.00 0.01 0.01 69 1008.5
20260905202825 71 309 1.0 1.0 0.00 0.01 0.01 67 1008.6
20260905202320 70 307 0.0 1.0 0.00 0.01 0.01 70 1008.4
20260905201815 70 309 0.0 1.0 0.00 0.01 0.01 69 1008.7
20260905201310 70 303 0.0 0.0 0.00 0.01 0.01 71 1008.1
20260905200805 70 286 1.0 1.0 0.00 0.01 0.01 70 1008.4
20260905200301 70 306 1.0 2.0 0.00 0.01 0.01 71 1008.4
20260905195759 70 301 2.0 2.0 0.00 0.01 0.01 73 1008.3
20260905195254 70 304 1.0 1.0 0.00 0.01 0.01 74 1008.3
20260905194749 70 299 2.0 2.0 0.00 0.01 0.01 72 1008.4
20260905194249 71 301 2.0 3.0 0.00 0.01 0.01 69 1008.4
20260905193743 71 310 0.0 1.0 0.00 0.01 0.01 69 1008.4
20260905193238 71 305 1.0 2.0 0.00 0.01 0.01 71 1008.2
20260905192733 71 296 1.0 2.0 0.00 0.01 0.01 68 1008.4
20260905192230 71 307 1.0 2.0 0.00 0.01 0.01 69 1008.3
20260905191729 71 305 1.0 1.0 0.00 0.01 0.01 69 1008.4
20260905191227 70 305 1.0 2.0 0.00 0.01 0.01 70 1008.3
20260905190726 70 316 0.0 0.0 0.00 0.01 0.01 70 1008.3
20260905190225 70 320 0.0 1.0 0.00 0.01 0.01 71 1008.4
20260905185724 70 309 1.0 1.0 0.00 0.01 0.01 70 1008.3
20260905185219 70 312 1.0 1.0 0.00 0.01 0.01 72 1008.3
20260905184719 71 300 1.0 1.0 0.00 0.01 0.01 72 1008.3
20260905184218 71 305 2.0 2.0 0.00 0.01 0.01 73 1008.3
20260905183712 71 310 0.0 0.0 0.00 0.01 0.01 70 1008.3
20260905183208 70 305 1.0 1.0 0.00 0.01 0.01 73 1008.3
20260905182707 70 308 1.0 1.0 0.00 0.01 0.01 72 1008.1
20260905182207 70 307 0.0 0.0 0.00 0.01 0.01 75 1008.0
20260905181702 70 293 3.0 3.0 0.00 0.01 0.01 73 1008.3
20260905181201 70 314 3.0 3.0 0.00 0.01 0.01 71 1008.3
20260905180655 69 306 1.0 1.0 0.00 0.01 0.01 72 1008.6
20260905180151 69 306 2.0 3.0 0.00 0.01 0.01 72 1008.4
20260905175650 70 295 3.0 3.0 0.00 0.01 0.01 74 1008.4
20260905175146 70 14 2.0 3.0 0.00 0.01 0.01 71 1008.2
20260905174641 69 312 2.0 3.0 0.00 0.01 0.01 73 1008.2
20260905174137 69 305 0.0 0.0 0.00 0.01 0.01 73 1008.3
20260905173632 70 287 3.0 3.0 0.00 0.01 0.01 74 1008.3
20260905173128 70 307 1.0 1.0 0.00 0.01 0.01 77 1008.3
20260905172627 69 305 2.0 2.0 0.00 0.01 0.01 78 1008.3
20260905172122 70 306 1.0 1.0 0.00 0.01 0.01 81 1008.3
20260905171618 69 310 0.0 0.0 0.00 0.01 0.01 85 1008.4
20260905171114 69 311 0.0 0.0 0.00 0.01 0.01 87 1008.4
20260905170610 68 303 2.0 3.0 0.00 0.01 0.01 84 1008.4
20260905170105 69 317 1.0 2.0 0.00 0.01 0.01 84 1008.3
20260905165600 69 309 1.0 1.0 0.00 0.01 0.01 86 1008.3
20260905165055 69 311 0.0 0.0 0.00 0.01 0.01 86 1008.4
20260905164549 68 307 0.0 0.0 0.00 0.01 0.01 88 1008.4
20260905164044 67 309 2.0 2.0 0.00 0.01 0.01 89 1008.5
20260905163540 66 312 0.0 0.0 0.00 0.01 0.01 94 1008.6
20260905163036 66 311 0.0 1.0 0.00 0.01 0.01 97 1008.7
20260905162532 65 311 0.0 0.0 0.00 0.01 0.01 97 1008.7
20260905162027 64 311 0.0 0.0 0.00 0.01 0.01 97 1008.9
20260905161526 64 311 0.0 0.0 0.00 0.01 0.01 97 1008.7
20260905161024 64 311 0.0 0.0 0.07 0.01 0.01 96 1008.8
20260905160518 64 313 1.0 1.0 0.07 0.01 0.01 94 1008.8
20260905160018 66 302 1.0 1.0 0.00 0.00 0.00 92 1008.8
20260905155518 68 315 1.0 2.0 0.00 0.00 0.00 84 1008.8
20260905155016 68 308 0.0 1.0 0.00 0.00 0.00 82 1008.4
20260905154511 68 310 1.0 1.0 0.00 0.00 0.00 82 1008.3
20260905154007 69 310 0.0 0.0 0.00 0.00 0.00 81 1008.3
20260905153503 69 311 1.0 1.0 0.00 0.00 0.00 80 1008.3
20260905153003 70 309 0.0 0.0 0.00 0.00 0.00 78 1008.3
20260905152502 70 306 1.0 1.0 0.00 0.00 0.00 79 1008.4
20260905151957 69 306 0.0 0.0 0.00 0.00 0.00 84 1008.4
20260905151452 69 310 0.0 0.0 0.00 0.00 0.00 83 1008.4
20260905150947 69 310 0.0 0.0 0.00 0.00 0.00 82 1008.3
20260905150442 68 312 0.0 1.0 0.00 0.00 0.00 83 1008.4
20260905145938 68 300 1.0 2.0 0.00 0.00 0.00 83 1008.5
20260905145433 68 308 0.0 1.0 0.00 0.00 0.00 82 1008.5
20260905144933 68 309 0.0 0.0 0.00 0.00 0.00 83 1008.4
20260905144428 68 287 2.0 3.0 0.00 0.00 0.00 82 1008.6
20260905143927 68 289 3.0 3.0 0.00 0.00 0.00 82 1008.3
20260905143420 68 309 1.0 1.0 0.00 0.00 0.00 82 1008.1
20260905142915 68 306 1.0 2.0 0.00 0.00 0.00 83 1008.3
20260905142414 68 305 1.0 1.0 0.00 0.00 0.00 82 1008.2
20260905141910 69 311 3.0 6.0 0.00 0.00 0.00 79 1008.1
20260905141405 69 305 1.0 1.0 0.00 0.00 0.00 80 1008.3
20260905140901 70 302 2.0 2.0 0.00 0.00 0.00 77 1008.0
20260905140355 69 293 2.0 2.0 0.00 0.00 0.00 80 1007.8
20260905135854 69 331 1.0 2.0 0.00 0.00 0.00 79 1007.9
20260905135350 67 329 0.0 1.0 0.00 0.00 0.00 82 1008.0